Regional Weather Roundup
Issued by NWS

Home | Current Version | Previous Version | Graphics & Text | Print | Product List | Glossary On
Versions: 1 2 3 4 5 6 7 8 9 10 11 12 13 14 15 16 17 18 19 20 21 22 23 24 25 26 27 28 29 30 31 32 33 34 35 36 37 38 39 40 41 42 43 44 45 46 47 48 49 50
000
ASUS43 KIND 260509
RWRIN

WEATHER ROUNDUP FOR INDIANA
NATIONAL WEATHER SERVICE INDIANAPOLIS IN
100 AM EDT TUE MAY 26 2015

NOTE: "FAIR" INDICATES FEW OR NO CLOUDS BELOW 12,000 FEET WITH NO
SIGNIFICANT WEATHER AND/OR OBSTRUCTIONS TO VISIBILITY.

* - STATION DOES NOT REPORT WEATHER SUCH AS PRECIPITATION OR FOG.

+ - STATION NOT QUALITY CONTROLLED BY THE NATIONAL WEATHER SERVICE.
    USE DATA WITH CAUTION...ESPECIALLY DEWPOINT AND RELATIVE
    HUMIDITY OBSERVATIONS.

INZ001>003-010>013-019-020-260600-
NORTHWEST INDIANA

CITY           SKY/WX    TMP DP  RH WIND       PRES   REMARKS
GARY /AIRPORT/ CLEAR     74  63  69 S8        29.97F
KNOX *+        CLEAR     70  63  78 S14       30.00F
LA PORTE +     CLEAR     72  64  75 S12G17    30.01S
MICHIGAN CITY+ PTCLDY    70  61  73 S8        29.99F
MONTICELLO +   PTCLDY    69  66  92 S7        30.02F
RENSSELAER +   CLEAR     70  66  88 S14       30.00F
VALPARAISO     CLEAR     70  63  78 S10       30.00F

$$

LMZ046-743>745-260600-
SOUTHERN LAKE MICHIGAN

STATION/POSITION TIME  TEMP    WIND        PRES    WAVE
                       AIR SEA DIR/SP/G            HT
                 (UTC) (F)     (DEG/KT/KT) (MB)    (FT)
BURNS HARBOR     0500   72     190/ 13/ 19 1015.6S
MICHIGAN CITY    0500   72     170/ 14/ 17   N/A
5NW MICH CITY    0500   64 52  210/ 10/ 12   N/A     1

$$

INZ004-005-014>016-021>024-260600-
NORTH CENTRAL INDIANA

CITY           SKY/WX    TMP DP  RH WIND       PRES   REMARKS
GOSHEN         CLEAR     69  63  81 S10       30.03R
LOGANSPORT +   CLEAR     66  61  82 S9        30.05F
PERU/GRISSOM   CLEAR     67  64  88 S9        30.04F
ROCHESTER +    CLEAR     70  64  83 S10       30.04F
SOUTH BEND     CLEAR     71  63  75 S9        30.01F
WARSAW +       CLEAR     70  64  83 SW7       30.04F

$$

INZ006>009-017-018-025>027-260600-
NORTHEAST INDIANA

CITY           SKY/WX    TMP DP  RH WIND       PRES   REMARKS
ANGOLA *+      CLEAR     70  63  78 SW8       30.04S
AUBURN +       MOCLDY    68  61  77 SW5       30.06F
FORT WAYNE     MOCLDY    67  62  84 S12       30.06S
HUNTINGTON +   MOCLDY    67  63  85 SW8       30.06S

$$

INZ028-029-035-036-043>045-051>053-260600-
WEST CENTRAL INDIANA

CITY           SKY/WX    TMP DP  RH WIND       PRES   REMARKS
CRAWFORDSVL +  CLEAR     64  60  85 S7        30.06S
GREENCASTLE +  PTCLDY    63  59  88 S3        30.07S FOG
LAFAYETTE      PTCLDY    68  64  87 S8        30.03F
TERRE HAUTE    PTCLDY    67  64  90 SE5       30.05S

$$

INZ030>032-037>040-046>048-054>057-064-065-260600-
CENTRAL INDIANA

CITY           SKY/WX    TMP DP  RH WIND       PRES   REMARKS
CP ATTERBURY + CLOUDY    68  63  83 S7        30.09F
FISHERS *+     MOCLDY    66  64  94 S7        30.08F
FRANKFORT +    CLEAR     66  66 100 S3        30.07F
GREENWOOD *+   CLOUDY    68  63  83 S9        30.09S
INDIANAPOLIS   CLOUDY    68  63  84 S9        30.06S
-EAGLE CREEK   CLOUDY    67  64  90 S6        30.06F
KOKOMO *+      CLEAR     66  63  88 SW10      30.06S
MARION +       PTCLDY    66  61  84 S8        30.08S
MT COMFORT *+  MOCLDY    66 N/A N/A S8        30.08F
SHELBYVILLE    CLOUDY    71  64  78 S9        30.08F
ZIONSVILLE +   PTCLDY    67  62  83 S7        30.08F

$$

INZ033-034-041-042-049-050-058-059-260600-
EAST CENTRAL INDIANA

CITY           SKY/WX    TMP DP  RH WIND       PRES   REMARKS
MUNCIE         CLOUDY    68  63  84 S8        30.08F

$$

INZ060-061-067>069-081>083-085>088-260600-
SOUTHWEST INDIANA

CITY           SKY/WX    TMP DP  RH WIND       PRES   REMARKS
EVANSVILLE     MOCLDY    69  66  90 SE9       30.06S
HUNTINGBURG *+ MOCLDY    66  63  88 S7        30.08S
WASHINGTON +   MOCLDY    66  62  87 S8        30.06S

$$

INZ062-063-066-070>080-084-089>092-260600-
SOUTH CENTRAL AND SOUTHEAST INDIANA

CITY           SKY/WX    TMP DP  RH WIND       PRES   REMARKS
BLOOMINGTON    MOCLDY    66  64  93 S6        30.07F
MADISON *+     MOCLDY    66  63  88 CALM      30.13S
NORTH VERNON + CLOUDY    68  68 100 S7        30.10F
SEYMOUR +      CLOUDY    68  64  88 S6        30.09F

$$




USA.gov is the U.S. government's official web portal to all federal, state and local government web resources and services.